This is the latest recevied weather packets stored in our database for station/object E25HML-13. If no packets are shown the sender has not sent any weather packets the latest 10 day(s).
| Time | Temp. | Humidity | Pressure | Rain* | Wind** | Luminosity | Snow |
|---|---|---|---|---|---|---|---|
| 1777901013 | 33.89° C | 66% | 1006.2 hPa | - | - | - | - |
| 1777900712 | 33.33° C | 66% | 1006.2 hPa | - | - | - | - |
| 1777900412 | 33.89° C | 66% | 1006.1 hPa | - | - | - | - |
| 1777900112 | 33.89° C | 66% | 1005.9 hPa | - | - | - | - |
| 1777899812 | 33.89° C | 65% | 1005.8 hPa | - | - | - | - |
| 1777899512 | 33.89° C | 66% | 1005.5 hPa | - | - | - | - |
| 1777899212 | 33.33° C | 67% | 1005.4 hPa | - | - | - | - |
| 1777898915 | 32.78° C | 69% | 1005.5 hPa | - | - | - | - |
| 1777898612 | 33.89° C | 67% | 1005.7 hPa | - | - | - | - |
| 1777898313 | 33.89° C | 67% | 1005.7 hPa | - | - | - | - |
| 1777898013 | 33.89° C | 67% | 1005.7 hPa | - | - | - | - |
| 1777897712 | 33.89° C | 67% | 1005.7 hPa | - | - | - | - |
| 1777897412 | 33.89° C | 68% | 1005.5 hPa | - | - | - | - |
| 1777897112 | 33.89° C | 68% | 1005.3 hPa | - | - | - | - |
| 1777896812 | 33.89° C | 67% | 1005.2 hPa | - | - | - | - |
| 1777896512 | 33.89° C | 68% | 1005 hPa | - | - | - | - |
| 1777896212 | 34.44° C | 67% | 1004.6 hPa | - | - | - | - |
| 1777895912 | 34.44° C | 66% | 1004.6 hPa | - | - | - | - |
| 1777895612 | 34.44° C | 66% | 1004.8 hPa | - | - | - | - |
| 1777895312 | 34.44° C | 66% | 1004.7 hPa | - | - | - | - |
| 1777895012 | 34.44° C | 63% | 1004.4 hPa | - | - | - | - |
| 1777894712 | 34.44° C | 63% | 1004.3 hPa | - | - | - | - |
| 1777894411 | 34.44° C | 62% | 1004.2 hPa | - | - | - | - |
| 1777894111 | 33.89° C | 62% | 1004 hPa | - | - | - | - |
| 1777893812 | 33.89° C | 63% | 1004 hPa | - | - | - | - |
* Rain since midnight (hover to see other rain measurements)
** Current wind speed in m/s (hover to see current wind gust speed)